Valley City, ND

5:57 PM CST on December 14, 2019 (GMT -0600)
Valley City

Weather History for KBAC - November, 2019

Change the Weather History Date:

Monday, November 18, 2019

  Actual Average (KJMS) Record (KJMS)
Temperature  
Mean Temperature 34 °F -  
Max Temperature 42 °F 34 °F 69 °F (1908)
Min Temperature 26 °F 18 °F -7 °F (1903)
Degree Days  
Heating Degree Days 31    
Moisture  
Dew Point 35 °F    
Average Humidity 99    
Maximum Humidity 100    
Minimum Humidity 87    
Precipitation  
Precipitation 0.00 in - - ()
Sea Level Pressure  
Sea Level Pressure 29.63 in    
Wind  
Wind Speed 9 mph (WSW)    
Max Wind Speed 16 mph    
Max Gust Speed 22 mph    
Visibility 9 miles    
Events Rain    
Averages and records for this station are not official NWS values.
T = Trace of Precipitation, MM = Missing Value Source: NWS Daily Summary

Daily Weather History Graph

Daily Weather History Graph

Search for Another Location

Airport or City:

Astronomy

Nov. 18, 2019 Rise Set
Actual Time 7:39 AM CST 4:54 PM CST
Civil Twilight 7:05 AM CST 5:28 PM CST
Nautical Twilight 6:28 AM CST 6:05 PM CST
Astronomical Twilight 5:52 AM CST 6:41 PM CST
Moon 10:40 PM CST (11/18) 1:13 PM CST (11/18)
Length of Visible Light 10h 22m
Length of Day
9h 15m
Waning Gibbous, 63% of the Moon is Illuminated
Nov 18
Waning Gibbous
Nov 19
Last Quarter
Nov 26
New
Dec 4
First Quarter
Dec 11
Full

Hourly Weather History & Observations

Time (CST) Temp. Windchill Dew Point Humidity Pressure Visibility Wind Dir Wind Speed Gust Speed Precip Events Conditions
12:35 AM 32.0 °F 23.6 °F 32.0 °F 100% 29.68 in 9.0 mi SSE 10.4 mph - N/A   Overcast
12:55 AM - - - N/A% 29.67 in 9.0 mi SSE 9.2 mph - N/A   Overcast
1:15 AM 33.8 °F 25.8 °F 33.8 °F 100% 29.65 in 10.0 mi SSE 10.4 mph - N/A   Overcast
1:35 AM 33.8 °F 26.4 °F 33.8 °F 100% 29.65 in 10.0 mi SSE 9.2 mph - N/A   Overcast
1:55 AM 33.8 °F 25.8 °F 33.8 °F 100% 29.64 in 9.0 mi SSE 10.4 mph - N/A   Overcast
2:15 AM 32.0 °F 23.6 °F 32.0 °F 100% 29.63 in 10.0 mi SSE 10.4 mph - N/A   Overcast
2:35 AM 32.0 °F 23.6 °F 32.0 °F 100% 29.63 in 10.0 mi SSE 10.4 mph - N/A   Mostly Cloudy
2:55 AM 32.0 °F 24.2 °F 32.0 °F 100% 29.63 in 9.0 mi SSE 9.2 mph - N/A   Partly Cloudy
3:15 AM 32.0 °F 25.6 °F 32.0 °F 100% 29.62 in 8.0 mi SSE 6.9 mph - N/A   Clear
3:35 AM 30.2 °F 22.6 °F 30.2 °F 100% 29.62 in 8.0 mi SSE 8.1 mph - N/A   Clear
3:55 AM 30.2 °F 23.4 °F 30.2 °F 100% 29.62 in 7.0 mi SSE 6.9 mph - N/A   Clear
4:15 AM 30.2 °F 23.4 °F 30.2 °F 100% 29.60 in 8.0 mi SSE 6.9 mph - N/A   Clear
4:35 AM 30.2 °F 22.6 °F 30.2 °F 100% 29.60 in 7.0 mi South 8.1 mph - N/A   Clear
4:55 AM 30.2 °F 24.3 °F 30.2 °F 100% 29.61 in 7.0 mi SSE 5.8 mph - N/A   Clear
5:15 AM 28.4 °F 21.2 °F 28.4 °F 100% 29.60 in 6.0 mi SSE 6.9 mph - N/A   Clear
5:55 AM 28.4 °F 22.2 °F 28.4 °F 100% 29.59 in 5.0 mi SSE 5.8 mph - N/A   Clear
6:15 AM 28.4 °F 20.4 °F 28.4 °F 100% 29.58 in 5.0 mi SSE 8.1 mph - N/A   Clear
6:35 AM 26.6 °F 20.0 °F 26.6 °F 100% 29.58 in 5.0 mi South 5.8 mph - N/A   Clear
7:15 AM 26.6 °F 21.2 °F 26.6 °F 100% 29.59 in 6.0 mi South 4.6 mph - N/A   Scattered Clouds
7:35 AM 28.4 °F 22.2 °F 28.4 °F 100% 29.59 in 4.0 mi South 5.8 mph - N/A   Overcast
7:55 AM 28.4 °F 24.6 °F 28.4 °F 100% 29.59 in 4.0 mi South 3.5 mph - N/A   Overcast
8:15 AM 30.2 °F 25.4 °F 30.2 °F 100% 29.59 in 4.0 mi South 4.6 mph - N/A   Overcast
8:35 AM 30.2 °F 25.4 °F 30.2 °F 100% 29.59 in 5.0 mi SSW 4.6 mph - N/A   Mostly Cloudy
8:55 AM 30.2 °F 25.4 °F 30.2 °F 100% 29.59 in 6.0 mi SSW 4.6 mph - N/A   Scattered Clouds
9:15 AM 30.2 °F 26.7 °F 30.2 °F 100% 29.58 in 7.0 mi SW 3.5 mph - N/A   Clear
9:35 AM 32.0 °F - 32.0 °F 100% 29.58 in 9.0 mi Calm Calm - N/A   Partly Cloudy
9:55 AM 32.0 °F - 32.0 °F 100% 29.58 in 9.0 mi Calm Calm - N/A   Partly Cloudy
10:15 AM 33.8 °F 28.6 °F 33.8 °F 100% 29.59 in 10.0 mi West 5.8 mph - N/A   Mostly Cloudy
10:35 AM 35.6 °F 28.0 °F 35.6 °F 100% 29.60 in 10.0 mi WSW 10.4 mph - N/A   Overcast
10:55 AM 37.4 °F 29.8 °F 37.4 °F 100% 29.60 in 10.0 mi West 11.5 mph - N/A   Mostly Cloudy
11:15 AM 39.2 °F 33.0 °F 39.2 °F 100% 29.60 in 10.0 mi West 9.2 mph - N/A   Mostly Cloudy
11:35 AM 39.2 °F 32.5 °F 39.2 °F 100% 29.60 in 10.0 mi WNW 10.4 mph - N/A   Overcast
11:55 AM 39.2 °F 33.0 °F 39.2 °F 100% 29.59 in 10.0 mi WNW 9.2 mph - N/A   Overcast
12:35 PM 41.0 °F 32.8 °F 41.0 °F 100% 29.59 in 10.0 mi WNW 16.1 mph - N/A   Mostly Cloudy
12:55 PM 41.0 °F 33.9 °F 41.0 °F 100% 29.60 in 10.0 mi WNW 12.7 mph 18.4 mph N/A   Mostly Cloudy
1:15 PM 41.0 °F 34.3 °F 41.0 °F 100% 29.60 in 9.0 mi WNW 11.5 mph - N/A Rain Light Rain
1:35 PM 41.0 °F 34.3 °F 41.0 °F 100% 29.60 in 10.0 mi WNW 11.5 mph - N/A   Mostly Cloudy
1:55 PM 42.8 °F 36.2 °F 42.8 °F 100% 29.61 in 10.0 mi NW 12.7 mph - N/A   Overcast
2:15 PM 42.8 °F 36.6 °F 41.0 °F 93% 29.61 in 10.0 mi NW 11.5 mph - N/A   Mostly Cloudy
2:35 PM 42.8 °F 36.2 °F 41.0 °F 93% 29.62 in 10.0 mi NW 12.7 mph - N/A   Clear
2:55 PM 42.8 °F 35.1 °F 39.2 °F 87% 29.62 in 10.0 mi NW 16.1 mph - N/A   Clear
3:15 PM 42.8 °F 37.0 °F 41.0 °F 93% 29.63 in 10.0 mi NW 10.4 mph 17.3 mph N/A   Clear
3:35 PM 42.8 °F 36.2 °F 41.0 °F 93% 29.63 in 10.0 mi NW 12.7 mph - N/A   Scattered Clouds
4:15 PM 42.8 °F 35.1 °F 42.8 °F 100% 29.64 in 9.0 mi NW 16.1 mph - N/A Rain Light Rain
4:35 PM - - - N/A% 29.64 in 10.0 mi NW 11.5 mph 17.3 mph N/A   Scattered Clouds
4:55 PM - - - N/A% 29.64 in 10.0 mi WNW 11.5 mph - N/A   Scattered Clouds
5:15 PM 39.2 °F 33.0 °F 39.2 °F 100% 29.66 in 10.0 mi WNW 9.2 mph - N/A   Scattered Clouds
5:35 PM 39.2 °F 32.5 °F 39.2 °F 100% 29.67 in 10.0 mi West 10.4 mph - N/A   Partly Cloudy
5:55 PM 39.2 °F 32.5 °F 39.2 °F 100% 29.67 in 10.0 mi West 10.4 mph - N/A   Clear
6:15 PM 39.2 °F 33.0 °F 39.2 °F 100% 29.67 in 10.0 mi West 9.2 mph 17.3 mph N/A   Clear
6:35 PM - - - N/A% 29.67 in 10.0 mi NW 4.6 mph 11.5 mph N/A   Clear
6:55 PM 37.4 °F 28.9 °F 37.4 °F 100% 29.66 in 10.0 mi West 13.8 mph - N/A   Clear
7:35 PM 37.4 °F 29.3 °F 37.4 °F 100% 29.66 in 10.0 mi West 12.7 mph - N/A   Clear
7:55 PM 39.2 °F 30.8 °F 39.2 °F 100% 29.66 in 10.0 mi West 15.0 mph 21.9 mph N/A   Clear
8:15 PM - - - N/A% 29.65 in 10.0 mi West 15.0 mph - N/A   Clear
8:35 PM - - - N/A% 29.65 in 10.0 mi West 15.0 mph - N/A   Clear
8:55 PM 39.2 °F 31.6 °F 37.4 °F 93% 29.66 in 10.0 mi WNW 12.7 mph 18.4 mph N/A   Clear
9:15 PM 37.4 °F 30.3 °F 35.6 °F 93% 29.66 in 10.0 mi WNW 10.4 mph - N/A   Clear
9:35 PM 37.4 °F 28.5 °F 35.6 °F 93% 29.66 in 10.0 mi WNW 15.0 mph - N/A   Clear
9:55 PM 37.4 °F 30.3 °F 35.6 °F 93% 29.67 in 10.0 mi WNW 10.4 mph 16.1 mph N/A   Clear
10:15 PM 35.6 °F 27.1 °F 35.6 °F 100% 29.67 in 10.0 mi West 12.7 mph - N/A   Clear
10:35 PM 33.8 °F 25.8 °F 33.8 °F 100% 29.67 in 10.0 mi West 10.4 mph - N/A   Clear
10:55 PM 35.6 °F 28.6 °F 33.8 °F 93% 29.67 in 10.0 mi West 9.2 mph 15.0 mph N/A   Clear
11:15 PM 33.8 °F 26.4 °F 33.8 °F 100% 29.68 in 10.0 mi West 9.2 mph - N/A   Clear
11:35 PM 35.6 °F 27.5 °F 33.8 °F 93% 29.67 in 10.0 mi WNW 11.5 mph - N/A   Clear
11:55 PM 35.6 °F 27.5 °F 33.8 °F 93% 29.68 in 10.0 mi WNW 11.5 mph - N/A   Partly Cloudy